Regional Weather Roundup
Issued by NWS

Home | Current Version | Previous Version | Text Only | Print | Product List | Glossary Off
Versions: 1 2 3 4 5 6 7 8 9 10 11 12 13 14 15 16 17 18 19 20 21 22 23 24 25 26 27 28 29 30 31 32 33 34 35 36 37 38 39 40 41 42 43 44 45 46 47 48 49 50

067
ASUS43 KLSX 301707
RWRMO

WEATHER SUMMARY FOR MISSOURI
NATIONAL WEATHER SERVICE SPRINGFIELD MO
1200 PM CDT MON MAY 30 2016

NOTE: "FAIR" INDICATES FEW OR NO CLOUDS BELOW 12,000 FEET WITH NO
       SIGNIFICANT WEATHER AND/OR OBSTRUCTIONS TO VISIBILITY.
       CURRENT SKY AND/OR WEATHER CONDITIONS ARE NOT AVAILABLE FOR
       CHILLICOTHE AND FARMINGTON.

MOZ001>031-035>038-043-044-053-054-301800-
...NORTHERN AND WESTERN MISSOURI...

CITY           SKY/WX    TMP DP  RH WIND       PRES   REMARKS
KANSAS CTY INT PTSUNNY   82  68  62 SE9       30.02F
KANSAS C DTWN  CLOUDY    84  66  54 SE10      30.00F
LEE`S SUMMIT   CLOUDY    80  67  64 SE7       30.03F
ST JOSEPH      SUNNY     83  65  54 SE10      30.00F
CHILLICOTHE      N/A     84  67  56 S5        30.03F
KIRKSVILLE     SUNNY     82  65  56 SW7       30.05F

$$
MOZ066>068-077>081-088>096-101>105-301800-
...SOUTHWEST MISSOURI...

CITY           SKY/WX    TMP DP  RH WIND       PRES   REMARKS
SPRINGFIELD    MOSUNNY   81  61  50 S12       30.06S
JOPLIN         CLOUDY    74  67  78 SW13      30.07S
BRANSON        CLOUDY    79  63  57 S6        30.11R

$$
MOZ032>034-039>042-045>050-055>058-069>072-301800-
...CENTRAL MISSOURI...

CITY           SKY/WX    TMP DP  RH WIND       PRES   REMARKS
COLUMBIA       PTSUNNY   82  63  52 VRB3      30.05F
JEFFERSON CITY MOSUNNY   85  64  49 VRB3      30.04F
ROLLA          MOSUNNY   79  62  56 SW3       30.07S
SEDALIA        CLOUDY    83  66  56 VRB3      30.05F
WHITEMAN AFB   CLOUDY    82  67  60 VRB5      30.03F
WARRENSBURG    CLOUDY    81  64  57 S6        30.03S

$$
MOZ051-052-059>065-301800-
...EAST CENTRAL MISSOURI...

CITY           SKY/WX    TMP DP  RH WIND       PRES   REMARKS
ST LOUIS INTL  PTSUNNY   88  60  38 CALM      30.06F
SPIRIT OF STL  PTSUNNY   85  62  46 CALM      30.04F
ST CHARLES     SUNNY     85  64  49 NW7       30.04F

$$
MOZ072>076-082>087-097>100-106>115-301800-
...SOUTH CENTRAL AND SOUTHEAST MISSOURI...

CITY           SKY/WX    TMP DP  RH WIND       PRES   REMARKS
CAPE GIRARDEAU SUNNY     85  60  42 VRB3      30.06F
FARMINGTON     SUNNY     82  60  47 CALM      30.09F
POPLAR BLUFF   SUNNY     83  63  50 SE3       30.06F
WEST PLAINS    PTSUNNY   81  63  54 SE7       30.10F

$$



USA.gov is the U.S. government's official web portal to all federal, state and local government web resources and services.